Date String (YYYY-MM-DD hh:mm:ss) UTC,Instrument flags,Ambient pressure (hPa),Sample flow (lpm),Bypass flow (lpm),Sample temperature (°C),Ambient temperature (°C),ASC tube jacket temperature (°C),LED temperature (°C),Box temperature (°C),Sample RH (%),Span deviation,Mass concentration (μg/m³),Mass concentration (μg/m³),Mass concentration (μg/m³)
DateTimeUTC,F1_M11,P_M11,Q1_M11,Q2_M11,T1_M11,T2_M11,T3_M11,T4_M11,T5_M11,U1_M11,ZSPAN_M11,X0_M11,X2_M11,X1_M11
2022-01-19 03:00:00,,0822.6,4.98,0.00,22.9,22.2,00.0,32.0,24.7,08.5,0000.0,0008.47,0003.26,0002.60
2022-01-19 03:01:00,,0822.6,5.02,0.00,22.9,22.2,00.0,31.9,24.7,08.5,0000.0,0008.17,0003.24,0002.59
2022-01-19 03:02:00,,0822.7,5.00,0.00,22.9,22.2,00.0,31.9,24.7,08.5,0000.0,0008.09,0003.22,0002.58
2022-01-19 03:03:00,,0822.7,5.00,0.00,22.9,22.2,00.0,31.9,24.7,08.5,0000.0,0008.08,0003.20,0002.57
2022-01-19 03:04:00,,0822.7,5.01,0.00,22.9,22.1,00.0,31.9,24.6,08.6,0000.0,0008.23,0003.16,0002.56
2022-01-19 03:05:00,,0822.7,4.99,0.00,22.9,22.1,00.0,31.9,24.6,08.5,0000.0,0008.74,0003.13,0002.53
2022-01-19 03:06:00,,0822.7,5.01,0.00,22.9,22.1,00.0,31.9,24.6,08.6,0000.0,0008.76,0003.14,0002.50
2022-01-19 03:07:00,,0822.7,4.98,0.00,22.9,22.1,00.0,31.9,24.6,08.5,0000.0,0008.80,0003.15,0002.50
2022-01-19 03:08:00,,0822.7,5.00,0.00,22.9,22.1,00.0,31.9,24.6,08.5,0000.0,0008.79,0003.15,0002.51
2022-01-19 03:09:00,,0822.7,5.00,0.00,22.8,22.1,00.0,31.9,24.6,08.5,0000.0,0008.11,0003.20,0002.56
2022-01-19 03:10:00,,0822.7,4.99,0.00,22.8,22.1,00.0,31.9,24.6,08.5,0000.0,0007.60,0003.26,0002.67
2022-01-19 03:11:00,,0822.7,5.01,0.00,22.8,22.1,00.0,31.9,24.6,08.5,0000.0,0007.14,0003.30,0002.76
2022-01-19 03:12:00,,0822.7,4.99,0.00,22.8,22.1,00.0,31.9,24.6,08.6,0000.0,0007.00,0003.32,0002.82
2022-01-19 03:13:00,,0822.8,5.00,0.00,22.8,22.0,00.0,31.9,24.6,08.6,0000.0,0007.24,0003.39,0002.93
2022-01-19 03:14:00,,0822.7,4.99,0.00,22.8,22.0,00.0,31.9,24.5,08.6,0000.0,0007.17,0003.41,0002.96
2022-01-19 03:15:00,,0822.8,5.00,0.00,22.8,22.0,00.0,31.9,24.5,08.6,0000.0,0006.75,0003.39,0002.93
2022-01-19 03:16:00,,0822.8,5.01,0.00,22.8,22.0,00.0,31.9,24.5,08.6,0000.0,0005.50,0003.39,0002.94
2022-01-19 03:17:00,,0822.8,4.99,0.00,22.8,22.0,00.0,31.8,24.5,08.7,0000.0,0005.95,0003.41,0002.97
2022-01-19 03:18:00,,0822.8,4.99,0.00,22.8,22.0,00.0,31.8,24.5,08.7,0000.0,0006.45,0003.41,0003.00
2022-01-19 03:19:00,,0822.8,5.01,0.00,22.8,22.0,00.0,31.8,24.5,08.7,0000.0,0006.50,0003.42,0002.99
2022-01-19 03:20:00,,0822.9,4.98,0.00,22.8,22.0,00.0,31.8,24.5,08.6,0000.0,0006.41,0003.40,0002.97
2022-01-19 03:21:00,,0822.9,5.01,0.00,22.7,22.0,00.0,31.8,24.5,08.6,0000.0,0006.29,0003.34,0002.87
2022-01-19 03:22:00,,0822.9,4.99,0.00,22.7,21.9,00.0,31.8,24.4,08.7,0000.0,0006.27,0003.28,0002.77
2022-01-19 03:23:00,,0823.0,5.00,0.00,22.7,21.9,00.0,31.8,24.4,08.8,0000.0,0006.09,0003.23,0002.69
2022-01-19 03:24:00,,0822.9,5.01,0.00,22.7,22.0,00.0,31.8,24.5,08.8,0000.0,0005.77,0003.15,0002.56
2022-01-19 03:25:00,,0822.9,4.98,0.00,22.7,22.0,00.0,31.8,24.5,08.8,0000.0,0005.74,0003.12,0002.53
2022-01-19 03:26:00,,0823.1,5.02,0.00,22.7,22.0,00.0,31.8,24.4,08.7,0000.0,0005.74,0003.12,0002.55
2022-01-19 03:27:00,,0822.9,4.99,0.00,22.7,22.0,00.0,31.8,24.5,08.7,0000.0,0006.11,0003.13,0002.55
2022-01-19 03:28:00,,0822.9,5.00,0.00,22.7,22.0,00.0,31.8,24.4,08.8,0000.0,0007.56,0003.11,0002.54
2022-01-19 03:29:00,,0823.0,5.00,0.00,22.7,21.9,00.0,31.8,24.4,09.0,0000.0,0007.64,0003.13,0002.53
2022-01-19 03:30:00,,0823.0,4.98,0.00,22.7,21.9,00.0,31.8,24.4,08.7,0000.0,0008.46,0003.14,0002.51
2022-01-19 03:31:00,,0823.0,5.02,0.00,22.7,21.9,00.0,31.8,24.4,08.6,0000.0,0008.58,0003.11,0002.49
2022-01-19 03:32:00,,0822.9,4.98,0.00,22.7,21.9,00.0,31.8,24.4,08.7,0000.0,0008.57,0003.07,0002.48
2022-01-19 03:33:00,,0823.0,5.00,0.00,22.7,21.9,00.0,31.7,24.4,08.6,0000.0,0008.74,0003.09,0002.47
2022-01-19 03:34:00,,0822.9,5.00,0.00,22.6,21.9,00.0,31.7,24.4,08.6,0000.0,0008.75,0003.11,0002.47
2022-01-19 03:35:00,,0822.9,5.00,0.00,22.6,21.9,00.0,31.7,24.4,08.7,0000.0,0008.80,0003.14,0002.48
2022-01-19 03:36:00,,0822.9,5.00,0.00,22.6,21.9,00.0,31.7,24.4,08.7,0000.0,0008.93,0003.17,0002.48
2022-01-19 03:37:00,,0822.9,5.00,0.00,22.6,21.9,00.0,31.7,24.4,08.7,0000.0,0009.10,0003.18,0002.48
2022-01-19 03:38:00,,0823.0,4.99,0.00,22.6,21.9,00.0,31.7,24.4,08.7,0000.0,0009.02,0003.19,0002.47
2022-01-19 03:39:00,,0822.9,5.01,0.00,22.6,21.9,00.0,31.7,24.3,08.9,0000.0,0008.19,0003.18,0002.47
2022-01-19 03:40:00,,0823.0,4.99,0.00,22.6,21.9,00.0,31.7,24.4,08.8,0000.0,0007.82,0003.16,0002.46
2022-01-19 03:41:00,,0823.0,5.00,0.00,22.6,21.9,00.0,31.7,24.3,08.6,0000.0,0007.63,0003.13,0002.45
2022-01-19 03:42:00,,0823.0,5.00,0.00,22.6,21.9,00.0,31.7,24.3,08.6,0000.0,0007.44,0003.13,0002.46
2022-01-19 03:43:00,,0823.0,5.00,0.00,22.6,21.9,00.0,31.7,24.3,08.7,0000.0,0007.41,0003.12,0002.46
2022-01-19 03:44:00,,0823.1,4.99,0.00,22.6,21.8,00.0,31.7,24.3,08.7,0000.0,0006.97,0003.05,0002.44
2022-01-19 03:45:00,,0823.1,5.02,0.00,22.6,21.8,00.0,31.7,24.3,08.7,0000.0,0006.85,0003.02,0002.44
2022-01-19 03:46:00,,0823.1,5.00,0.00,22.6,21.8,00.0,31.7,24.3,08.7,0000.0,0007.11,0003.03,0002.44
2022-01-19 03:47:00,,0823.1,4.99,0.00,22.5,21.8,00.0,31.6,24.3,08.8,0000.0,0007.48,0002.98,0002.44
2022-01-19 03:48:00,,0823.1,5.02,0.00,22.5,21.8,00.0,31.6,24.2,08.8,0000.0,0007.21,0002.91,0002.43
2022-01-19 03:49:00,,0823.1,4.99,0.00,22.5,21.8,00.0,31.6,24.3,08.9,0000.0,0007.25,0002.95,0002.43
2022-01-19 03:50:00,,0823.1,5.01,0.00,22.5,21.8,00.0,31.6,24.3,08.9,0000.0,0006.65,0002.94,0002.42
2022-01-19 03:51:00,,0823.1,4.99,0.00,22.5,21.8,00.0,31.6,24.3,08.7,0000.0,0006.71,0002.96,0002.41
2022-01-19 03:52:00,,0823.1,5.01,0.00,22.5,21.7,00.0,31.6,24.2,08.8,0000.0,0006.99,0002.98,0002.42
2022-01-19 03:53:00,,0823.1,5.01,0.00,22.5,21.7,00.0,31.6,24.2,08.8,0000.0,0006.72,0003.00,0002.42
2022-01-19 03:54:00,,0823.1,4.99,0.00,22.5,21.7,00.0,31.6,24.2,08.9,0000.0,0006.87,0003.04,0002.41
2022-01-19 03:55:00,,0823.1,5.02,0.00,22.4,21.7,00.0,31.6,24.2,08.9,0000.0,0006.88,0003.05,0002.41
2022-01-19 03:56:00,,0823.1,4.99,0.00,22.5,21.7,00.0,31.6,24.2,08.9,0000.0,0006.83,0003.00,0002.40
2022-01-19 03:57:00,,0823.1,5.00,0.00,22.4,21.7,00.0,31.5,24.2,08.9,0000.0,0006.71,0002.98,0002.38
2022-01-19 03:58:00,,0823.1,5.01,0.00,22.4,21.7,00.0,31.5,24.2,08.9,0000.0,0006.19,0002.94,0002.34
2022-01-19 03:59:00,,0823.2,5.00,0.00,22.4,21.7,00.0,31.5,24.2,08.8,0000.0,0007.64,0002.96,0002.33
